SWR2354 LSGG-LGZA

Flight info

Callsign SWR2354
Flight time 2h 0m
Altitude 35000
Route ROCCA DCT GEN DCT LATAN DCT KFN
Aircraft A320/M-SDE3FGHIRWY/LB1

Departure

Time 2026-04-26 18:44
Airport Geneva International Airport (LSGG)

Arrival

Time 2026-04-26 20:44
Airport Zakynthos International Airport Dionysios Solomos (LGZA)
Time Latitude Longitude Altitude Speed Heading
2026-04-26 18:02 46.23033 6.10572 1392 ft 0 kts 135°
2026-04-26 18:35 46.23036 6.10567 1391 ft 3 kts 136°
2026-04-26 18:35 46.23057 6.10543 1388 ft 4 kts 155°
2026-04-26 18:35 46.23080 6.10536 1386 ft 4 kts 202°
2026-04-26 18:35 46.23089 6.10543 1388 ft 0 kts 226°
2026-04-26 18:38 46.23085 6.10537 1386 ft 2 kts 226°
2026-04-26 18:38 46.23068 6.10514 1387 ft 8 kts 223°
2026-04-26 18:38 46.23009 6.10430 1386 ft 12 kts 224°
2026-04-26 18:39 46.22957 6.10355 1391 ft 10 kts 232°
2026-04-26 18:39 46.22977 6.10271 1384 ft 9 kts 314°
2026-04-26 18:39 46.23014 6.10213 1390 ft 7 kts 295°
2026-04-26 18:39 46.22992 6.10153 1390 ft 9 kts 223°
2026-04-26 18:40 46.22938 6.10082 1387 ft 12 kts 222°
2026-04-26 18:40 46.22899 6.09985 1391 ft 9 kts 266°
2026-04-26 18:40 46.22896 6.09903 1392 ft 8 kts 250°
2026-04-26 18:40 46.22851 6.09829 1395 ft 13 kts 224°
2026-04-26 18:41 46.22802 6.09757 1394 ft 17 kts 225°
2026-04-26 18:41 46.22714 6.09628 1403 ft 19 kts 225°
2026-04-26 18:41 46.22616 6.09482 1401 ft 19 kts 226°
2026-04-26 18:41 46.22550 6.09322 1407 ft 19 kts 263°
2026-04-26 18:42 46.22550 6.09237 1403 ft 0 kts 275°
2026-04-26 18:42 46.22551 6.09235 1403 ft 2 kts 275°
2026-04-26 18:42 46.22563 6.09184 1409 ft 9 kts 302°
2026-04-26 18:42 46.22629 6.09173 1404 ft 11 kts 34°
2026-04-26 18:43 46.22669 6.09229 1404 ft 14 kts 45°
2026-04-26 18:43 46.22890 6.09552 1398 ft 80 kts 45°
2026-04-26 18:43 46.23431 6.10342 1386 ft 138 kts 45°
2026-04-26 18:43 46.24207 6.11471 1445 ft 175 kts 45°
2026-04-26 18:44 46.25024 6.12694 2195 ft 165 kts 46°
2026-04-26 18:44 46.25791 6.13897 2840 ft 166 kts 47°
2026-04-26 18:44 46.26609 6.15204 3171 ft 183 kts 47°
2026-04-26 18:44 46.27527 6.16579 3548 ft 197 kts 45°
2026-04-26 18:45 46.28540 6.18002 3973 ft 208 kts 43°
2026-04-26 18:45 46.29621 6.19478 4385 ft 222 kts 44°
2026-04-26 18:45 46.30775 6.21137 4658 ft 246 kts 45°
2026-04-26 18:45 46.32020 6.22963 5176 ft 261 kts 45°
2026-04-26 18:46 46.33310 6.24863 5938 ft 266 kts 45°
2026-04-26 18:46 46.34620 6.26790 6719 ft 270 kts 45°
2026-04-26 18:46 46.35807 6.28935 7422 ft 278 kts 65°
2026-04-26 18:46 46.36120 6.31692 8096 ft 285 kts 98°
2026-04-26 18:47 46.35338 6.34318 8781 ft 290 kts 131°
2026-04-26 18:47 46.33717 6.35944 9492 ft 291 kts 164°
2026-04-26 18:47 46.31700 6.36081 10236 ft 290 kts 196°
2026-04-26 18:47 46.29734 6.35153 10565 ft 308 kts 200°
2026-04-26 18:48 46.27652 6.34144 10723 ft 331 kts 199°
2026-04-26 18:48 46.25408 6.33107 11100 ft 345 kts 198°
2026-04-26 18:48 46.23089 6.32081 11739 ft 350 kts 198°
2026-04-26 18:48 46.20728 6.31114 12423 ft 355 kts 193°
2026-04-26 18:49 46.18261 6.30698 13081 ft 360 kts 183°
2026-04-26 18:49 46.15746 6.30537 13742 ft 364 kts 184°
2026-04-26 18:49 46.13202 6.30356 14342 ft 368 kts 184°
2026-04-26 18:49 46.10633 6.30163 14909 ft 371 kts 184°
2026-04-26 18:50 46.08039 6.29965 15474 ft 375 kts 184°
2026-04-26 18:50 46.05419 6.29764 16038 ft 379 kts 184°
2026-04-26 18:50 46.02765 6.29608 16593 ft 383 kts 180°
2026-04-26 18:50 46.00100 6.30058 17133 ft 389 kts 167°
2026-04-26 18:51 45.97526 6.31307 17694 ft 393 kts 155°
2026-04-26 18:51 45.95166 6.33317 18249 ft 397 kts 143°
2026-04-26 18:51 45.93093 6.35962 18784 ft 400 kts 135°
2026-04-26 18:51 45.91134 6.38824 19319 ft 403 kts 133°
2026-04-26 18:52 45.89220 6.41783 19837 ft 406 kts 132°
2026-04-26 18:52 45.87320 6.44797 20351 ft 409 kts 131°
2026-04-26 18:52 45.85430 6.47800 20873 ft 411 kts 131°
2026-04-26 18:52 45.83496 6.50839 21373 ft 414 kts 132°
2026-04-26 18:53 45.81536 6.53878 21863 ft 416 kts 132°
2026-04-26 18:53 45.79554 6.56924 22360 ft 419 kts 132°
2026-04-26 18:53 45.77552 6.59978 22832 ft 422 kts 132°
2026-04-26 18:53 45.75539 6.63038 23293 ft 424 kts 132°
2026-04-26 18:54 45.73631 6.66269 23742 ft 426 kts 126°
2026-04-26 18:54 45.71851 6.69691 24093 ft 429 kts 126°
2026-04-26 18:54 45.70064 6.73127 24450 ft 432 kts 126°
2026-04-26 18:54 45.68267 6.76583 24814 ft 434 kts 126°
2026-04-26 18:55 45.66458 6.80064 25167 ft 436 kts 126°
2026-04-26 18:55 45.64646 6.83542 25522 ft 438 kts 126°
2026-04-26 18:55 45.62816 6.87039 25849 ft 440 kts 126°
2026-04-26 18:55 45.60975 6.90546 26174 ft 442 kts 126°
2026-04-26 18:56 45.59125 6.94067 26507 ft 444 kts 126°
2026-04-26 18:56 45.57268 6.97606 26846 ft 446 kts 126°
2026-04-26 18:56 45.55404 7.01157 27150 ft 448 kts 126°
2026-04-26 18:56 45.53520 7.04741 27433 ft 451 kts 127°
2026-04-26 18:57 45.51632 7.08322 27704 ft 453 kts 127°
2026-04-26 18:57 45.50375 7.10702 27923 ft 455 kts 127°
2026-04-26 18:57 45.47817 7.15539 28269 ft 458 kts 127°
2026-04-26 18:57 45.45897 7.19164 28532 ft 460 kts 127°
2026-04-26 18:58 45.43971 7.22802 28805 ft 462 kts 128°
2026-04-26 18:58 45.42821 7.24972 28964 ft 463 kts 128°
2026-04-26 18:58 45.41412 7.27628 29156 ft 464 kts 128°
2026-04-26 18:58 45.39488 7.31251 29390 ft 466 kts 128°
2026-04-26 18:59 45.37498 7.35000 29652 ft 468 kts 128°
2026-04-26 18:59 45.35564 7.38639 29897 ft 469 kts 128°
2026-04-26 18:59 45.33589 7.42345 30133 ft 471 kts 128°
2026-04-26 18:59 45.31603 7.46061 30345 ft 473 kts 128°
2026-04-26 19:00 45.29614 7.49776 30605 ft 472 kts 128°
2026-04-26 19:00 45.27628 7.53484 30830 ft 471 kts 128°
2026-04-26 19:00 45.25644 7.57186 31093 ft 471 kts 128°
2026-04-26 19:00 45.23659 7.60885 31360 ft 470 kts 128°
2026-04-26 19:01 45.21681 7.64568 31633 ft 469 kts 128°
2026-04-26 19:01 45.19706 7.68242 31900 ft 468 kts 128°
2026-04-26 19:01 45.17727 7.71914 32150 ft 468 kts 129°
2026-04-26 19:01 45.15751 7.75573 32362 ft 469 kts 129°
2026-04-26 19:02 45.13766 7.79249 32603 ft 468 kts 129°
2026-04-26 19:02 45.11786 7.82909 32862 ft 468 kts 129°
2026-04-26 19:02 45.09808 7.86560 33140 ft 466 kts 130°
2026-04-26 19:02 45.08500 7.88973 33347 ft 465 kts 130°
2026-04-26 19:03 45.05870 7.93821 33721 ft 464 kts 130°
2026-04-26 19:03 45.03904 7.97435 33987 ft 463 kts 130°
2026-04-26 19:03 45.01939 8.01040 34233 ft 462 kts 130°
2026-04-26 19:03 44.99976 8.04640 34452 ft 462 kts 130°
2026-04-26 19:04 44.98006 8.08247 34614 ft 464 kts 130°
2026-04-26 19:04 44.96033 8.11858 34784 ft 464 kts 130°
2026-04-26 19:04 44.94064 8.15464 34972 ft 464 kts 130°
2026-04-26 19:04 44.92090 8.19074 35103 ft 465 kts 130°
2026-04-26 19:05 44.86167 8.29861 35128 ft 462 kts 130°
2026-04-26 19:06 44.82224 8.37015 35133 ft 462 kts 130°
2026-04-26 19:06 44.78267 8.44179 35133 ft 464 kts 129°
2026-04-26 19:07 44.74322 8.51305 35138 ft 464 kts 130°
2026-04-26 19:07 44.70348 8.58456 35136 ft 464 kts 130°
2026-04-26 19:08 44.66369 8.65594 35140 ft 463 kts 129°
2026-04-26 19:08 44.62388 8.72721 35147 ft 463 kts 129°
2026-04-26 19:09 44.58423 8.79822 35163 ft 462 kts 129°
2026-04-26 19:09 44.54457 8.86910 35168 ft 461 kts 129°
2026-04-26 19:10 44.50491 8.93967 35167 ft 461 kts 130°
2026-04-26 19:10 44.46544 9.00964 35166 ft 461 kts 130°
2026-04-26 19:11 44.42587 9.08034 35165 ft 461 kts 126°
2026-04-26 19:11 44.39205 9.15657 35164 ft 462 kts 122°
2026-04-26 19:12 44.35852 9.23340 35158 ft 462 kts 122°
2026-04-26 19:12 44.32492 9.30994 35147 ft 462 kts 122°
2026-04-26 19:13 44.29140 9.38593 35153 ft 462 kts 122°
2026-04-26 19:13 44.25767 9.46218 35153 ft 462 kts 122°
2026-04-26 19:14 44.22387 9.53869 35146 ft 463 kts 123°
2026-04-26 19:14 44.19004 9.61516 35147 ft 464 kts 123°
2026-04-26 19:15 44.15610 9.69162 35151 ft 464 kts 123°
2026-04-26 19:15 44.12200 9.76795 35154 ft 464 kts 123°
2026-04-26 19:16 44.08787 9.84426 35155 ft 464 kts 123°
2026-04-26 19:16 44.05371 9.92056 35152 ft 465 kts 123°
2026-04-26 19:17 44.01939 9.99705 35141 ft 467 kts 123°
2026-04-26 19:17 43.98485 10.07363 35155 ft 468 kts 123°
2026-04-26 19:18 43.94998 10.15067 35180 ft 474 kts 123°
2026-04-26 19:18 43.91465 10.22884 35178 ft 480 kts 123°
2026-04-26 19:19 43.87910 10.30730 35200 ft 482 kts 123°
2026-04-26 19:19 43.84357 10.38530 35177 ft 482 kts 123°
2026-04-26 19:20 43.80770 10.46371 35170 ft 482 kts 123°
2026-04-26 19:20 43.77180 10.54215 35174 ft 482 kts 123°
2026-04-26 19:21 43.73592 10.62042 35170 ft 483 kts 123°
2026-04-26 19:21 43.69978 10.69883 35162 ft 483 kts 123°
2026-04-26 19:22 43.66364 10.77708 35167 ft 483 kts 123°
2026-04-26 19:22 43.62742 10.85541 35167 ft 483 kts 123°
2026-04-26 19:23 43.59117 10.93356 35174 ft 484 kts 123°
2026-04-26 19:23 43.55507 11.01112 35178 ft 484 kts 123°
2026-04-26 19:24 43.51867 11.08922 35180 ft 484 kts 123°
2026-04-26 19:24 43.47008 11.19301 35175 ft 484 kts 123°
2026-04-26 19:25 43.43977 11.25776 35181 ft 484 kts 123°
2026-04-26 19:25 43.39706 11.34863 35181 ft 484 kts 123°
2026-04-26 19:26 43.36037 11.42635 35177 ft 484 kts 123°
2026-04-26 19:26 43.32358 11.50389 35182 ft 484 kts 123°
2026-04-26 19:27 43.28679 11.58140 35181 ft 484 kts 123°
2026-04-26 19:27 43.24996 11.65886 35184 ft 484 kts 123°
2026-04-26 19:28 43.21306 11.73632 35178 ft 484 kts 123°
2026-04-26 19:28 43.17615 11.81354 35183 ft 484 kts 123°
2026-04-26 19:29 43.13916 11.89065 35185 ft 484 kts 123°
2026-04-26 19:29 43.10215 11.96763 35181 ft 484 kts 123°
2026-04-26 19:30 43.06509 12.04452 35175 ft 484 kts 123°
2026-04-26 19:30 43.03421 12.10835 35178 ft 484 kts 124°
2026-04-26 19:31 42.99088 12.19791 35171 ft 484 kts 124°
2026-04-26 19:31 42.95369 12.27458 35164 ft 483 kts 124°
2026-04-26 19:32 42.91674 12.35051 35163 ft 483 kts 124°
2026-04-26 19:32 42.87949 12.42685 35181 ft 483 kts 124°
2026-04-26 19:33 42.84222 12.50311 35175 ft 483 kts 124°
2026-04-26 19:33 42.80489 12.57929 35178 ft 483 kts 124°
2026-04-26 19:34 42.76740 12.65528 35184 ft 483 kts 124°
2026-04-26 19:34 42.72989 12.73120 35176 ft 483 kts 124°
2026-04-26 19:35 42.69243 12.80711 35173 ft 483 kts 125°
2026-04-26 19:35 42.65489 12.88293 35164 ft 483 kts 125°
2026-04-26 19:36 42.62368 12.94592 35164 ft 483 kts 125°
2026-04-26 19:36 42.57967 13.03429 35166 ft 483 kts 125°
2026-04-26 19:37 42.54193 13.10981 35169 ft 483 kts 125°
2026-04-26 19:37 42.50415 13.18519 35202 ft 483 kts 125°
2026-04-26 19:38 42.46659 13.25998 35205 ft 483 kts 125°
2026-04-26 19:38 42.42876 13.33520 35199 ft 483 kts 125°
2026-04-26 19:39 42.39090 13.41026 35190 ft 483 kts 125°
2026-04-26 19:39 42.35296 13.48516 35192 ft 482 kts 125°
2026-04-26 19:40 42.31501 13.55989 35188 ft 482 kts 125°
2026-04-26 19:40 42.27699 13.63470 35188 ft 482 kts 125°
2026-04-26 19:41 42.23900 13.70935 35179 ft 482 kts 125°
2026-04-26 19:41 42.20738 13.77140 35180 ft 483 kts 125°
2026-04-26 19:42 42.16278 13.85843 35170 ft 483 kts 125°
2026-04-26 19:42 42.12476 13.93239 35173 ft 483 kts 125°
2026-04-26 19:43 42.08656 14.00672 35178 ft 482 kts 125°
2026-04-26 19:43 42.04828 14.08103 35170 ft 483 kts 125°
2026-04-26 19:44 42.00999 14.15508 35174 ft 483 kts 125°
2026-04-26 19:44 41.97156 14.22923 35172 ft 483 kts 125°
2026-04-26 19:45 41.93310 14.30313 35169 ft 482 kts 125°
2026-04-26 19:45 41.89464 14.37693 35155 ft 482 kts 125°
2026-04-26 19:46 41.85612 14.45073 35160 ft 482 kts 125°
2026-04-26 19:46 41.81758 14.52439 35150 ft 482 kts 126°
2026-04-26 19:47 41.78547 14.58558 35153 ft 483 kts 126°
2026-04-26 19:47 41.74059 14.67103 35152 ft 483 kts 126°
2026-04-26 19:48 41.70189 14.74451 35148 ft 483 kts 126°
2026-04-26 19:48 41.66299 14.81789 35151 ft 483 kts 126°
2026-04-26 19:49 41.62412 14.89113 35154 ft 483 kts 126°
2026-04-26 19:49 41.58527 14.96444 35153 ft 483 kts 126°
2026-04-26 19:50 41.54635 15.03756 35153 ft 483 kts 126°
2026-04-26 19:50 41.50737 15.11059 35148 ft 483 kts 126°
2026-04-26 19:51 41.46839 15.18355 35141 ft 483 kts 126°
2026-04-26 19:51 41.42930 15.25644 35136 ft 483 kts 126°
2026-04-26 19:52 41.39018 15.32918 35133 ft 483 kts 126°
2026-04-26 19:52 41.35130 15.40134 35121 ft 483 kts 126°
2026-04-26 19:53 41.31218 15.47386 35127 ft 482 kts 126°
2026-04-26 19:53 41.27303 15.54623 35126 ft 482 kts 126°
2026-04-26 19:54 41.23379 15.61843 35127 ft 482 kts 126°
2026-04-26 19:54 41.19452 15.69054 35132 ft 482 kts 126°
2026-04-26 19:55 41.15525 15.76261 35130 ft 482 kts 126°
2026-04-26 19:55 41.11588 15.83468 35129 ft 482 kts 126°
2026-04-26 19:56 41.07678 15.90613 35132 ft 472 kts 126°
2026-04-26 19:56 41.03829 15.97622 35133 ft 469 kts 126°
2026-04-26 19:57 40.99985 16.04604 35135 ft 469 kts 126°
2026-04-26 19:57 40.96140 16.11587 35151 ft 469 kts 126°
2026-04-26 19:58 40.92311 16.18525 35165 ft 470 kts 126°
2026-04-26 19:58 40.88447 16.25490 35174 ft 470 kts 126°
2026-04-26 19:59 40.84551 16.32493 35187 ft 470 kts 126°
2026-04-26 19:59 40.80679 16.39451 35176 ft 469 kts 126°
2026-04-26 20:00 40.76820 16.46375 35143 ft 469 kts 126°
2026-04-26 20:00 40.72976 16.53261 35160 ft 469 kts 126°
2026-04-26 20:01 40.69106 16.60177 35181 ft 468 kts 126°
2026-04-26 20:01 40.65231 16.67077 35195 ft 468 kts 127°
2026-04-26 20:02 40.61343 16.73968 35205 ft 468 kts 127°
2026-04-26 20:02 40.58116 16.79680 35205 ft 468 kts 127°
2026-04-26 20:03 40.53584 16.87711 35147 ft 468 kts 127°
2026-04-26 20:03 40.49704 16.94573 35140 ft 467 kts 127°
2026-04-26 20:04 40.45822 17.01413 35133 ft 467 kts 127°
2026-04-26 20:04 40.41941 17.08242 35129 ft 466 kts 127°
2026-04-26 20:05 40.38077 17.15020 35133 ft 466 kts 127°
2026-04-26 20:05 40.34193 17.21821 35133 ft 466 kts 127°
2026-04-26 20:06 40.30298 17.28621 35133 ft 466 kts 127°
2026-04-26 20:06 40.26393 17.35420 35133 ft 466 kts 127°
2026-04-26 20:07 40.22486 17.42202 35127 ft 466 kts 127°
2026-04-26 20:07 40.18582 17.48964 35130 ft 466 kts 127°
2026-04-26 20:08 40.14673 17.55738 35138 ft 466 kts 127°
2026-04-26 20:08 40.10766 17.62508 35140 ft 466 kts 127°
2026-04-26 20:09 40.06857 17.69248 35141 ft 466 kts 127°
2026-04-26 20:09 40.03594 17.74856 35142 ft 466 kts 127°
2026-04-26 20:10 39.99676 17.81587 35139 ft 466 kts 127°
2026-04-26 20:10 39.95750 17.88317 35138 ft 466 kts 127°
2026-04-26 20:11 39.91821 17.95030 35132 ft 466 kts 127°
2026-04-26 20:12 39.85925 18.05073 35134 ft 465 kts 127°
2026-04-26 20:12 39.81988 18.11769 35134 ft 465 kts 127°
2026-04-26 20:13 39.78052 18.18447 35127 ft 465 kts 128°
2026-04-26 20:13 39.74142 18.25071 35126 ft 465 kts 128°
2026-04-26 20:14 39.70202 18.31739 35122 ft 464 kts 128°
2026-04-26 20:14 39.66262 18.38386 35119 ft 464 kts 128°
2026-04-26 20:15 39.62316 18.45018 35117 ft 464 kts 128°
2026-04-26 20:15 39.58368 18.51655 35113 ft 465 kts 128°
2026-04-26 20:16 39.54413 18.58289 35108 ft 465 kts 128°
2026-04-26 20:16 39.50448 18.64916 35109 ft 465 kts 128°
2026-04-26 20:17 39.46473 18.71535 35108 ft 466 kts 128°
2026-04-26 20:17 39.42495 18.78168 35114 ft 466 kts 128°
2026-04-26 20:18 39.38506 18.84801 35109 ft 466 kts 128°
2026-04-26 20:18 39.34554 18.91361 35112 ft 466 kts 128°
2026-04-26 20:19 39.30565 18.97965 35109 ft 466 kts 128°
2026-04-26 20:19 39.26185 19.04106 35106 ft 466 kts 135°
2026-04-26 20:20 39.21615 19.10052 35103 ft 466 kts 135°
2026-04-26 20:20 39.17045 19.16005 35099 ft 467 kts 136°
2026-04-26 20:21 39.12474 19.21937 35119 ft 466 kts 136°
2026-04-26 20:21 39.07908 19.27826 35123 ft 464 kts 136°
2026-04-26 20:22 39.03346 19.33707 35127 ft 463 kts 136°
2026-04-26 20:22 38.98791 19.39574 35133 ft 463 kts 136°
2026-04-26 20:23 38.94248 19.45429 35109 ft 463 kts 136°
2026-04-26 20:23 38.89714 19.51312 35100 ft 464 kts 136°
2026-04-26 20:24 38.85161 19.57193 35099 ft 465 kts 136°
2026-04-26 20:24 38.80579 19.63069 35103 ft 466 kts 136°
2026-04-26 20:25 38.75988 19.68918 35102 ft 466 kts 136°
2026-04-26 20:25 38.71387 19.74788 35110 ft 466 kts 136°
2026-04-26 20:26 38.66800 19.80629 34583 ft 462 kts 136°
2026-04-26 20:26 38.64510 19.83540 32862 ft 468 kts 136°
2026-04-26 20:26 38.62184 19.86492 31060 ft 474 kts 136°
2026-04-26 20:26 38.59865 19.89434 29435 ft 476 kts 136°
2026-04-26 20:27 38.57556 19.92368 28532 ft 460 kts 136°
2026-04-26 20:27 38.55289 19.95248 27392 ft 462 kts 136°
2026-04-26 20:27 38.52996 19.98152 26186 ft 467 kts 136°
2026-04-26 20:27 38.50670 20.01089 25023 ft 473 kts 136°
2026-04-26 20:28 38.48343 20.04027 24217 ft 468 kts 136°
2026-04-26 20:28 38.46032 20.06947 23298 ft 467 kts 136°
2026-04-26 20:28 38.43731 20.09847 22466 ft 462 kts 136°
2026-04-26 20:28 38.41453 20.12713 21678 ft 458 kts 136°
2026-04-26 20:29 38.39197 20.15552 20922 ft 454 kts 136°
2026-04-26 20:29 38.36959 20.18367 20175 ft 450 kts 136°
2026-04-26 20:29 38.34737 20.21160 19448 ft 447 kts 136°
2026-04-26 20:29 38.32529 20.23931 18738 ft 444 kts 135°
2026-04-26 20:30 38.30333 20.26682 17996 ft 441 kts 136°
2026-04-26 20:30 38.28159 20.29404 17328 ft 436 kts 135°
2026-04-26 20:30 38.26011 20.32092 16704 ft 430 kts 135°
2026-04-26 20:30 38.23889 20.34749 16095 ft 426 kts 135°
2026-04-26 20:31 38.21794 20.37368 15511 ft 416 kts 135°
2026-04-26 20:31 38.19770 20.39899 14970 ft 404 kts 135°
2026-04-26 20:31 38.17774 20.42394 14420 ft 401 kts 135°
2026-04-26 20:31 38.15790 20.44867 13852 ft 398 kts 135°
2026-04-26 20:32 38.13813 20.47327 13257 ft 395 kts 135°
2026-04-26 20:32 38.11860 20.49755 12654 ft 391 kts 136°
2026-04-26 20:32 38.09812 20.52005 12042 ft 388 kts 140°
2026-04-26 20:32 38.07731 20.54167 11419 ft 385 kts 140°
2026-04-26 20:33 38.05687 20.56287 11183 ft 371 kts 140°
2026-04-26 20:33 38.03731 20.58319 11060 ft 355 kts 140°
2026-04-26 20:33 38.01893 20.60227 10925 ft 329 kts 140°
2026-04-26 20:33 38.00182 20.62007 10690 ft 309 kts 140°
2026-04-26 20:34 37.98543 20.63711 10271 ft 300 kts 140°
2026-04-26 20:34 37.96932 20.65385 10061 ft 298 kts 140°
2026-04-26 20:34 37.95331 20.67048 9930 ft 298 kts 140°
2026-04-26 20:34 37.93726 20.68713 9799 ft 299 kts 140°
2026-04-26 20:35 37.92117 20.70379 9665 ft 298 kts 140°
2026-04-26 20:35 37.90514 20.72037 9528 ft 298 kts 140°
2026-04-26 20:35 37.88903 20.73700 9330 ft 300 kts 140°
2026-04-26 20:35 37.87317 20.75339 8803 ft 296 kts 140°
2026-04-26 20:36 37.85734 20.76975 8256 ft 291 kts 140°
2026-04-26 20:36 37.84177 20.78585 7674 ft 287 kts 140°
2026-04-26 20:36 37.82642 20.80183 7116 ft 284 kts 138°
2026-04-26 20:36 37.81474 20.82155 6388 ft 281 kts 110°
2026-04-26 20:37 37.81199 20.84564 5636 ft 278 kts 82°
2026-04-26 20:37 37.81859 20.86819 4903 ft 275 kts 53°
2026-04-26 20:37 37.83266 20.88396 4173 ft 271 kts 26°
2026-04-26 20:37 37.85049 20.88957 3687 ft 259 kts
2026-04-26 20:38 37.86777 20.88980 3516 ft 237 kts
2026-04-26 20:38 37.88357 20.89046 3403 ft 218 kts
2026-04-26 20:38 37.89812 20.89099 3297 ft 200 kts 355°
2026-04-26 20:38 37.91041 20.88569 3220 ft 179 kts 324°
2026-04-26 20:39 37.91795 20.87442 3122 ft 159 kts 295°
2026-04-26 20:39 37.92004 20.86579 3083 ft 153 kts 279°
2026-04-26 20:39 37.91803 20.84855 2979 ft 149 kts 245°
2026-04-26 20:39 37.91171 20.83832 2908 ft 149 kts 219°
2026-04-26 20:40 37.90252 20.83236 2838 ft 150 kts 193°
2026-04-26 20:40 37.89231 20.83190 2767 ft 149 kts 168°
2026-04-26 20:40 37.88230 20.83543 2693 ft 149 kts 162°
2026-04-26 20:40 37.87217 20.83909 2617 ft 150 kts 163°
2026-04-26 20:41 37.86215 20.84267 2389 ft 149 kts 163°
2026-04-26 20:41 37.85229 20.84621 2157 ft 149 kts 163°
2026-04-26 20:41 37.84231 20.84982 1936 ft 149 kts 163°
2026-04-26 20:41 37.83235 20.85344 1713 ft 149 kts 163°
2026-04-26 20:42 37.82244 20.85703 1479 ft 148 kts 163°
2026-04-26 20:42 37.81256 20.86060 1281 ft 147 kts 163°
2026-04-26 20:42 37.80280 20.86417 1065 ft 146 kts 162°
2026-04-26 20:42 37.79311 20.86787 820 ft 145 kts 161°
2026-04-26 20:43 37.78365 20.87206 585 ft 144 kts 161°
2026-04-26 20:43 37.77411 20.87568 369 ft 142 kts 162°
2026-04-26 20:43 37.76467 20.87924 155 ft 141 kts 162°
2026-04-26 20:43 37.75530 20.88264 36 ft 139 kts 162°
2026-04-26 20:44 37.74756 20.88556 17 ft 76 kts 163°
2026-04-26 20:44 37.74446 20.88672 17 ft 35 kts 163°
2026-04-26 20:44 37.74366 20.88739 16 ft 2 kts 45°
2026-04-26 20:44 37.74393 20.88711 16 ft 12 kts 317°
2026-04-26 20:45 37.74499 20.88658 17 ft 21 kts 342°
2026-04-26 20:45 37.74661 20.88593 18 ft 26 kts 342°
2026-04-26 20:45 37.74838 20.88524 16 ft 28 kts 343°
2026-04-26 20:45 37.75011 20.88458 14 ft 19 kts 343°
2026-04-26 20:46 37.75089 20.88505 15 ft 13 kts 33°
2026-04-26 20:46 37.75182 20.88511 16 ft 15 kts 342°
2026-04-26 20:46 37.75280 20.88473 15 ft 14 kts 342°
2026-04-26 20:46 37.75369 20.88439 15 ft 9 kts 344°
2026-04-26 20:47 37.75404 20.88460 17 ft 5 kts 68°
2026-04-26 20:47 37.75403 20.88486 16 ft 4 kts 98°
2026-04-26 20:47 37.75404 20.88523 16 ft 2 kts 83°
2026-04-26 20:47 37.75406 20.88539 16 ft 1 kts 82°
2026-04-26 20:48 37.75406 20.88540 16 ft 0 kts 82°